Find Jilin-1 GaoFen 07C 03 xing

NORAD ID: 68698 Int'l Des: NNA 2026-080 Owner: CGSTL Country: CN Constellation: jilin-1 operational
LEOCIRCULARRETROGRADESSO

Current View

Loading 3D Globe...

About Jilin-1 GaoFen 07C 03 xing

Description loading...

Upcoming Passes

Passes for default location (London). Set your location on the main map for personalized predictions.

Altitude History

Loading altitude history...

Two-Line Element Set

1 68698U 26080H 26146.82919045 .00007435 00000-0 46063-3 0 9991
2 68698 97.6649 222.4793 0016541 137.0042 223.2483 15.09953433 6409
Epoch: May 26, 2026 • Age: 111 hours

Current Status

Altitude 546.0 km
Velocity 7.59 km/s
Sub-Earth Point -2.76°S, 170.25°E
Launch Date Apr 14, 2026
Age 0.1 years
Type other

Technical Details

Classification Payload
Mass 50.00 kg
Dry Mass 50.00 kg
Total Mass 50.00 kg
Length 1.50 m
Diameter 1.00 m
Span 1.50 m
Shape Box
Manufacturer CGSTL
Bus Type JL-1GF07
Phase Status In Orbit
Owner/State CGSTL/CN

Most Searched